Location: Trois-Rivi�res
(46.3500°N, 72.5500°W)
Time: 05:21:28
(UTC-04:00)

Daily predictions for brighter satellites

Satellite Brightness Start Highest point End
(mag) Time Altitude Azimuth Time Altitude Azimuth Time Altitude Azimuth
Lacrosse 5 4.2 00:01:25 10° W 00:02:40 14° W 00:02:40 14° W
CZ-2C R/B 3.1 00:01:02 10° N 00:06:16 53° WNW 00:06:35 52° W
Cosmos 2369 Rocket 4.3 00:04:13 10° WNW 00:07:21 15° W 00:07:34 15° W
CZ-4C R/B 4.4 00:07:14 10° W 00:11:54 26° NNW 00:17:11 10° NNE
Gbstr 26 Del rocket 4.4 00:13:15 63° SE 00:13:15 63° SE 00:20:20 10° ENE
H-2A R/B 3.1 00:14:36 46° N 00:14:36 46° N 00:17:50 10° NNW
Tsikada Rocket 3.9 00:14:12 10° N 00:20:26 86° WNW 00:20:26 86° WNW
USA 234 3.1 00:20:54 80° S 00:21:07 81° SW 00:27:42 10° NW
COSMOS 2406 3.7 00:22:46 52° ENE 00:22:46 52° ENE 00:27:17 10° NNE
ATLAS 5 CENTAUR R/B 4.3 00:18:59 10° WNW 00:22:00 17° W 00:22:00 17° W
Cosmos 2082 Rocket 4.3 00:27:44 14° E 00:27:44 14° E 00:29:31 10° ENE
Cosmos 2346 Rocket 4.4 00:23:40 10° N 00:29:53 87° N 00:29:53 87° N
SeaSat 1 3.0 00:35:48 57° N 00:35:48 57° N 00:39:51 10° NNW
Mayak 0.3 00:32:17 10° N 00:34:50 36° N 00:34:50 36° N
ALOS 2 4.2 00:44:02 31° NW 00:44:02 31° NW 00:46:34 10° NNW
USA 32 4.5 00:37:58 10° N 00:42:21 59° NNE 00:42:21 59° NNE
CZ-4B R/B 4.1 00:40:55 10° N 00:44:34 50° N 00:44:34 50° N
Lacrosse 4 Rocket 3.1 00:42:41 10° NNW 00:46:10 32° NNE 00:46:10 32° NNE
Meteor 1-18 Rocket 4.4 00:47:52 71° NNE 00:47:52 71° NNE 00:52:57 10° NNE
Cosmos 1833 Rocket 4.2 00:54:12 26° E 00:54:12 26° E 00:57:45 10° NE
Cosmos 2233 Rocket 4.0 01:00:04 71° WNW 01:00:04 71° WNW 01:06:06 10° N
Cosmos 909 Rocket 4.2 00:56:21 10° NNW 01:02:38 66° NE 01:03:34 59° E
Cosmos 2369 3.9 01:01:02 10° NNW 01:06:21 68° NE 01:06:21 68° NE
Cosmos 1464 Rocket 4.2 01:06:43 59° E 01:06:43 59° E 01:12:55 10° NNE
Meteor 1-12 Rocket 4.4 01:04:10 10° NNW 01:09:14 69° NW 01:09:14 69° NW
CZ-4B R/B 4.2 01:13:52 18° NE 01:13:52 18° NE 01:15:21 10° NNE
Nadezhda 4 Rocket 4.5 01:13:23 10° N 01:19:22 49° ENE 01:20:08 47° E
Meteor 2-9 Rocket 4.3 01:13:54 10° N 01:18:50 67° NE 01:18:50 67° NE
Cosmos 1975 Rocket 4.2 01:23:12 41° N 01:23:12 41° N 01:26:09 10° N
Cosmos 1455 Rocket 4.3 01:18:06 10° N 01:20:57 39° N 01:20:57 39° N
Cosmos 1513 Rocket 4.4 01:24:57 72° E 01:24:57 72° E 01:30:58 10° NNE
USA 267 4.2 01:22:51 10° NE 01:28:59 44° NNW 01:35:07 10° W
SL-16 R/B 4.2 01:26:11 15° ESE 01:30:13 28° ENE 01:35:22 10° N
Cosmos 1891 Rocket 4.3 01:31:10 79° E 01:31:10 79° E 01:37:14 10° N
Meteor 1-13 Rocket 4.2 01:35:44 80° NNE 01:35:44 80° NNE 01:41:12 10° NNE
ADEOS Rocket 3.5 01:30:20 10° N 01:36:50 50° WNW 01:37:36 48° W
Resurs 1-4 Rocket 4.1 01:39:58 10° NE 01:43:22 17° E 01:44:22 16° ESE
Cosmos 1607 3.8 01:46:10 82° SSW 01:46:29 88° SE 01:53:02 10° NE
BREEZE-M R/B 4.3 01:44:09 37° W 01:46:50 75° NNW 01:52:46 10° ENE
Cosmos 1980 Rocket 2.5 01:46:52 10° NNW 01:52:28 61° ENE 01:53:21 54° E
Cosmos 1697 Rocket 2.7 01:47:19 10° NNW 01:52:32 74° NW 01:52:32 74° NW
Cosmos 1536 Rocket 4.4 01:55:12 47° NNE 01:55:12 47° NNE 01:58:24 10° NNE
Exosat Rocket 4.2 01:49:10 10° NNW 01:55:13 87° WSW 01:56:54 58° SSE
Meteor 2-4 Rocket 3.6 01:55:42 71° NW 01:55:42 71° NW 02:00:42 10° N
Cosmos 2278 4.2 01:51:41 10° NW 01:56:01 46° WNW 01:56:01 46° WNW
Cosmos 371 Rocket 3.6 02:00:22 64° N 02:00:22 64° N 02:04:31 10° NNE
Cosmos 332 Rocket 4.1 02:01:29 61° N 02:01:29 61° N 02:05:34 10° NNE
Cosmos 1656 4.5 01:56:26 10° NW 02:00:35 40° WNW 02:00:35 40° WNW
ATLAS 3B R/B 4.2 02:01:00 22° SE 02:02:31 23° ESE 02:07:45 10° ENE
Meteor 1-23 Rocket 4.1 02:05:26 81° SE 02:05:37 83° E 02:11:20 10° NNE
Cosmos 2082 Rocket 2.0 02:09:34 84° W 02:09:41 85° WNW 02:15:22 10° NNE
H-2A R/B 4.0 02:06:48 10° NE 02:10:29 31° E 02:10:29 31° E
SL-16 R/B 3.7 02:05:38 10° NNW 02:10:47 33° NE 02:15:52 10° ESE
PSLV R/B 4.5 02:09:07 10° N 02:12:17 42° NNW 02:12:17 42° NNW
Lacrosse 5 rocket 2.3 02:14:51 47° N 02:14:51 47° N 02:18:14 10° NE
ATLAS CENTAUR R/B 4.3 02:15:02 10° N 02:18:02 18° NE 02:21:09 10° ENE
NPP 4.2 02:12:53 10° NNE 02:18:07 48° E 02:18:50 45° ESE
Cosmos 2322 Rocket 3.5 02:18:14 10° NNW 02:23:30 38° NE 02:28:43 10° ESE
Cosmos 304 Rocket 4.0 02:24:36 64° E 02:24:36 64° E 02:29:14 10° NNE
Lacrosse 4 Rocket 3.8 02:21:26 10° NW 02:22:28 16° NW 02:22:28 16° NW
Cosmos 2034 Rocket 4.3 02:26:42 48° W 02:27:23 50° WNW 02:33:25 10° N
Cosmos 1092 Rocket 3.9 02:24:54 10° NNW 02:31:08 73° W 02:32:05 62° SSW
Cosmos 2228 4.5 02:31:28 10° N 02:35:21 33° ENE 02:36:40 27° ESE
Cosmos 1833 Rocket 3.1 02:35:53 47° W 02:36:40 50° WNW 02:42:11 10° NNE
Cosmos 1763 Rocket 4.4 02:36:28 35° SE 02:37:33 40° ESE 02:42:30 10° NE
MOS 1 Rocket 4.1 02:33:25 10° N 02:37:47 40° WNW 02:37:47 40° WNW
Cosmos 2142 Rocket 4.4 02:38:31 52° SSE 02:40:06 77° E 02:46:16 10° N
Cosmos 1356 Rocket 3.7 02:44:47 62° ENE 02:44:47 62° ENE 02:48:36 10° NNE
CZ-4B R/B 4.0 02:47:19 15° NW 02:47:19 15° NW 02:48:06 10° NW
Iridium 4 Rocket 3.1 02:48:26 76° WNW 02:48:26 76° WNW 02:53:03 10° N
UNK 3.6 02:47:58 75° SSE 02:48:20 86° ENE 02:52:58 10° NNW
Cosmos 1655 Rocket 4.2 02:42:37 10° N 02:49:01 70° E 02:52:30 29° SSE
Meteor 1-22 Rocket 4.5 02:43:38 10° N 02:49:35 69° ENE 02:52:16 32° SSE
Okean 2 4.0 02:50:52 45° NW 02:50:52 45° NW 02:54:14 10° N
Cosmos 1606 Rocket 3.4 02:50:19 10° N 02:54:40 84° E 02:54:50 81° SE
Cosmos 2058 Rocket 3.7 02:52:19 10° N 02:56:40 52° ENE 02:58:16 34° SE
SJ 16-02 3.4 02:54:47 10° N 02:58:35 27° ENE 03:02:21 10° ESE
Okean 1-7 Rocket 3.4 02:58:23 78° SSW 02:58:41 87° W 03:03:16 10° N
Cosmos 1025 Rocket 3.4 02:59:22 49° WNW 02:59:22 49° WNW 03:03:14 10° N
Gblst 52 Del rocket 4.3 02:54:30 10° WNW 03:00:12 81° NNE 03:06:36 10° ESE
ADEOS II 4.3 02:57:06 10° NE 03:00:46 19° E 03:04:26 10° SE
CBERS-1 3.9 02:56:11 10° NNE 03:01:19 82° WNW 03:02:18 59° SSW
CZ-2D R/B 2.1 02:56:19 10° NNE 03:01:43 76° ESE 03:03:15 48° S
Cosmos 1842 4.4 03:01:41 34° ESE 03:02:30 38° E 03:06:13 10° NNE
Cosmos 44 3.3 02:57:30 10° NW 03:02:43 71° WSW 03:04:20 45° SSE
PSLV R/B 3.8 03:02:29 75° SE 03:02:47 82° ENE 03:06:53 10° NNW
COSMOS 2487 3.6 03:03:47 35° NNW 03:03:47 35° NNW 03:06:23 10° N
Cosmos 1898 Rocket 3.5 02:59:20 10° NNW 03:04:26 56° WSW 03:04:42 55° WSW
Helios 1A Rocket 4.4 03:02:44 10° NNE 03:06:31 33° E 03:08:02 25° SE
Cosmos 1937 Rocket 3.3 03:03:14 10° NNW 03:08:25 71° WSW 03:09:38 51° S
Cosmos 1892 Rocket 3.5 03:11:49 57° S 03:12:39 79° E 03:17:03 10° NNE
SL-16 R/B 2.6 03:11:16 40° SSW 03:13:26 61° WSW 03:19:39 10° NNW
Cosmos 1805 3.5 03:10:14 10° N 03:14:08 66° E 03:15:03 48° SE
USA 238 DEB 3.8 03:12:04 37° SSW 03:14:55 70° SE 03:21:52 10° NE
USA 238 3.8 03:12:10 37° SSW 03:15:01 70° ESE 03:21:58 10° NE
IRS-1C 4.0 03:10:09 10° NNE 03:15:32 83° WNW 03:17:15 45° SSW
Cosmos 990 Rocket 3.9 03:11:49 10° NNW 03:16:55 60° WSW 03:18:02 48° SSW
Cosmos 2208 Rocket 4.4 03:16:00 41° WSW 03:17:13 49° WNW 03:22:19 10° NNE
SL-08 R/B 3.6 03:18:15 47° WSW 03:18:33 47° W 03:23:18 10° NNW
Cosmos 1544 4.2 03:16:04 10° NNW 03:18:34 33° NW 03:18:34 33° NW
Cosmos 468 Rocket 4.2 03:20:22 44° WSW 03:21:47 58° WNW 03:27:03 10° NNE
Resurs 1-4 Rocket 2.1 03:18:28 10° N 03:23:43 70° WNW 03:25:27 42° SW
Cosmos 1634 Rocket 4.5 03:22:05 35° WSW 03:23:58 45° WNW 03:29:59 10° N
Cosmos 1766 3.3 03:23:37 10° NNW 03:27:26 57° W 03:27:26 57° W
ARIANE 5 R/B 2.5 03:25:48 10° NNE 03:31:04 88° ESE 03:33:28 34° SSW
CZ-2D R/B 4.2 03:27:17 10° NNE 03:31:18 48° E 03:33:26 25° SSE
Cosmos 2180 Rocket 4.5 03:28:28 32° SSW 03:31:38 77° W 03:38:05 10° N
Cosmos 2279 Rocket 4.1 03:29:32 35° SW 03:32:11 63° WNW 03:38:25 10° N
AQUA 4.3 03:27:52 10° N 03:32:26 46° WNW 03:33:36 38° WSW
Cosmos 1733 4.1 03:29:32 10° N 03:33:19 47° ENE 03:36:32 13° SSE
Cosmos 2360 Rocket 2.8 03:28:22 10° NNW 03:33:56 57° ENE 03:39:27 10° SE
Cosmos 1814 Rocket 3.9 03:34:01 39° SW 03:35:53 71° WNW 03:41:07 10° NNE
Cosmos 1980 Rocket 3.5 03:31:46 10° NW 03:35:04 21° W 03:35:04 21° W
Cosmos 1953 3.1 03:35:42 10° N 03:39:42 52° ENE 03:43:39 10° SSE
Spot 4 Rocket 4.0 03:35:41 10° N 03:40:51 75° WNW 03:43:15 32° SSW
H-2A R/B 3.7 03:42:22 10° N 03:46:08 29° WNW 03:47:06 27° W
NOSS 3-3 (A) 4.5 03:39:23 10° NW 03:46:52 89° NE 03:55:00 10° SE
NOSS 3-3 (C) 4.5 03:39:29 10° NW 03:46:58 89° NE 03:55:05 10° SE
Cosmos 44 Rocket 3.7 03:44:06 10° NW 03:48:58 43° WSW 03:53:12 13° S
NOSS 3-2 (C) 3.9 03:48:14 21° S 03:52:07 54° ESE 03:58:31 10° NE
ATLAS 3B R/B 2.7 03:48:15 27° SW 03:52:32 84° NW 03:59:27 10° NE
SAR-Lupe-2 4.3 03:52:51 33° W 03:52:51 33° W 03:55:57 10° NNW
Lacrosse 5 rocket 3.5 03:50:49 10° WNW 03:54:04 21° NNW 03:57:11 10° NE
Cosmos 2082 Rocket 4.1 03:51:24 12° W 03:54:39 18° NW 03:58:31 10° N
SL-16 R/B 2.5 03:49:38 10° NW 03:55:01 45° WSW 03:59:31 14° S
Cosmos 841 Rocket 3.6 03:54:06 29° SW 03:56:40 64° WNW 04:01:52 10° NNE
Cosmos 540 Rocket 3.5 03:53:58 23° SSW 03:57:11 79° ESE 04:02:22 10° NNE
ATLAS CENTAUR R/B 1.5 03:53:10 10° NW 03:57:35 88° NE 04:02:16 10° SE
Cosmos 2219 Rocket 4.2 03:53:13 10° N 03:58:08 30° NE 04:03:01 10° ESE
Cosmos 1378 3.7 03:57:02 18° S 03:59:40 57° E 04:03:23 10° NNE
Cosmos 2333 Rocket 4.4 03:56:12 10° N 04:01:05 29° NE 04:05:58 10° ESE
IRS-1D 4.3 04:00:31 10° N 04:05:17 38° WNW 04:07:55 23° WSW
NOSS 3-2 (A) 3.5 04:02:17 23° SW 04:06:12 87° SE 04:12:53 10° NE
COSMOS 2428 3.9 04:00:59 10° NNW 04:06:28 46° NE 04:11:54 10° SE
DNEPR-1 R/B 3.5 04:05:15 28° SW 04:07:29 83° NW 04:12:16 10° NE
Cosmos 2322 Rocket 2.7 04:02:22 10° NW 04:07:32 38° WSW 04:12:13 12° S
Okean O Rocket 4.4 04:05:30 10° ENE 04:07:46 14° E 04:10:01 10° ESE
Meteor 1-21 4.5 04:05:20 23° SW 04:08:38 51° WNW 04:14:07 10° N
Cosmos 1758 3.4 04:05:20 10° NNW 04:09:13 52° W 04:11:41 21° SSW
CENTAUR R/B 3.8 04:04:01 10° S 04:09:17 33° ESE 04:15:13 10° NE
Meteor 2-11 Rocket 4.4 04:07:22 16° SSW 04:12:25 73° W 04:18:35 10° N
Cosmos 2228 4.2 04:09:21 10° NW 04:12:44 23° W 04:13:29 22° WSW
Cosmos 2266 Rocket 4.1 04:07:24 10° NNW 04:13:18 55° W 04:19:18 10° SSW
UNKNOWN OBJECT B 3.0 04:15:02 10° N 04:18:44 48° WNW 04:20:49 23° SW
Cosmos 1470 2.8 04:17:01 10° NNW 04:20:59 62° W 04:24:52 10° S
BREEZE-M R/B 3.1 04:19:04 22° WSW 04:21:14 79° NNW 04:27:29 10° ENE
Cosmos 1812 Rocket 3.5 04:18:27 10° NNW 04:22:54 66° W 04:27:18 10° S
Cosmos 1833 4.3 04:22:40 15° SSW 04:27:37 86° WNW 04:33:26 10° NNE
Cosmos 1602 Rocket 3.8 04:26:34 17° SSW 04:29:44 50° WNW 04:33:57 10° N
Aureole 2 Rocket 3.1 04:26:45 10° NW 04:30:13 36° WSW 04:33:28 10° S
Cosmos 1707 2.7 04:26:45 11° S 04:30:26 82° W 04:34:21 10° N
Cosmos 292 Rocket 4.5 04:27:54 18° WSW 04:31:01 39° WNW 04:35:32 10° N
ADEOS 4.0 04:29:52 10° N 04:34:52 46° WNW 04:39:10 13° SW
Cosmos 1758 Rocket 4.2 04:32:26 10° S 04:36:41 57° E 04:41:01 10° NNE
SJ 16-02 2.0 04:33:13 10° NW 04:37:12 33° WSW 04:41:11 10° SSW
Cosmos 2292 Rocket 3.8 04:36:21 10° N 04:39:44 49° ENE 04:42:39 10° SSE
Cosmos 1626 Rocket 4.3 04:37:26 15° SW 04:40:30 35° WNW 04:44:31 10° N
ADEOS II 2.2 04:35:44 10° N 04:40:56 63° WNW 04:46:07 10° SSW
CZ-2D R/B 3.8 04:37:37 10° NNW 04:41:10 18° WNW 04:44:35 10° W
Helios 1A Rocket 4.2 04:38:10 10° N 04:41:36 25° WNW 04:44:18 14° WSW
ERBS 2.3 04:39:43 17° SW 04:42:13 78° NW 04:45:38 10° NE
Cosmos 1238 Rocket 4.1 04:42:22 10° S 04:49:04 83° W 04:55:38 10° N
PSLV R/B 4.1 04:49:20 14° SW 04:51:19 28° S 04:53:57 10° ESE
USA 267 4.2 04:47:06 10° E 04:53:20 50° NNE 04:59:36 10° NW
Meteor 1-31 Rocket 4.5 04:53:21 10° NNE 04:56:55 34° E 05:00:25 10° SSE
Cosmos 2322 4.0 04:51:37 10° NW 04:57:05 47° WSW 05:02:31 10° S
Cosmos 1125 Rocket 4.3 04:54:34 10° NW 04:59:11 31° W 05:03:45 10° SSW
Cosmos 2237 4.5 04:54:13 10° NW 04:59:40 46° WSW 05:05:05 10° S
CZ-4B R/B 3.0 04:58:00 10° NNE 05:02:11 83° ESE 05:06:07 10° SSW
Resurs 1-4 Rocket 4.1 05:00:44 10° NNW 05:02:36 12° NW 05:04:29 10° WNW
Cosmos-2242 3.0 05:03:58 10° N 05:08:16 89° W 05:12:30 10° S
ARIANE 5 R/B 4.4 05:06:28 10° NNW 05:09:28 16° WNW 05:12:27 10° W
PSLV R/B 3.7 05:05:38 10° NNE 05:09:29 87° WNW 05:13:13 10° SSW
USA 161 1.7 05:09:37 10° SSE 05:12:34 76° ENE 05:15:21 10° N
Cosmos 1315 Rocket 4.0 05:11:50 10° SSE 05:15:40 45° E 05:19:28 10° NNE
